Time,TemperatureF,DewpointF,PressureIn,WindDirection,WindDirectionDegrees,WindSpeedMPH,WindSpeedGustMPH,Humidity,HourlyPrecipIn,Conditions,Clouds,dailyrainin,SoftwareType,DateUTC
2013-03-09 00:00:00,32.8,27.3,30.42,SE,135,0.0,0.0,80,0.00,,,0.00,Wunderground v.1.15,2013-03-09 05:00:00,
2013-03-09 00:01:00,32.7,27.5,30.42,SE,135,0.0,0.0,81,0.00,,,0.00,Wunderground v.1.15,2013-03-09 05:01:00,
2013-03-09 00:03:00,32.7,27.5,30.42,SE,135,0.0,0.0,81,0.00,,,0.00,Wunderground v.1.15,2013-03-09 05:03:00,
2013-03-09 00:08:00,32.5,27.3,30.42,SE,135,0.0,0.0,81,0.00,,,0.00,Wunderground v.1.15,2013-03-09 05:08:00,
2013-03-09 00:10:00,32.5,27.3,30.42,SE,135,0.0,0.0,81,0.00,,,0.00,Wunderground v.1.15,2013-03-09 05:10:00,
2013-03-09 00:16:00,32.3,27.1,30.41,SE,135,0.0,0.0,81,0.00,,,0.00,Wunderground v.1.15,2013-03-09 05:16:00,
2013-03-09 00:22:00,32.1,27.2,30.41,SE,135,0.0,0.0,82,0.00,,,0.00,Wunderground v.1.15,2013-03-09 05:22:00,
2013-03-09 00:27:00,32.1,27.2,30.41,SE,135,0.0,0.0,82,0.00,,,0.00,Wunderground v.1.15,2013-03-09 05:27:00,
2013-03-09 00:32:00,32.1,27.2,30.41,SE,136,0.0,1.0,82,0.00,,,0.00,Wunderground v.1.15,2013-03-09 05:32:00,
2013-03-09 00:37:00,31.9,27.0,30.40,SE,135,1.0,2.0,82,0.00,,,0.00,Wunderground v.1.15,2013-03-09 05:37:00,
2013-03-09 00:43:00,31.7,27.1,30.40,SE,135,1.0,1.0,83,0.00,,,0.00,Wunderground v.1.15,2013-03-09 05:43:00,
2013-03-09 00:48:00,31.8,27.2,30.40,SE,135,0.0,1.0,83,0.00,,,0.00,Wunderground v.1.15,2013-03-09 05:48:00,
2013-03-09 00:53:00,31.6,27.0,30.40,SE,135,0.0,0.0,83,0.00,,,0.00,Wunderground v.1.15,2013-03-09 05:53:00,
2013-03-09 00:58:00,31.5,26.9,30.40,SE,135,0.0,0.0,83,0.00,,,0.00,Wunderground v.1.15,2013-03-09 05:58:00,
2013-03-09 01:04:00,31.3,26.7,30.40,SE,135,0.0,0.0,83,0.00,,,0.00,Wunderground v.1.15,2013-03-09 06:04:00,
2013-03-09 01:09:00,31.4,26.8,30.40,SE,135,0.0,0.0,83,0.00,,,0.00,Wunderground v.1.15,2013-03-09 06:09:00,
2013-03-09 01:14:00,31.4,27.1,30.40,SE,135,0.0,2.0,84,0.00,,,0.00,Wunderground v.1.15,2013-03-09 06:14:00,
2013-03-09 01:19:00,31.4,27.1,30.40,SE,135,1.0,2.0,84,0.00,,,0.00,Wunderground v.1.15,2013-03-09 06:19:00,
2013-03-09 01:25:00,31.4,27.1,30.40,SE,135,0.0,1.0,84,0.00,,,0.00,Wunderground v.1.15,2013-03-09 06:25:00,
2013-03-09 01:30:00,31.4,27.1,30.40,SE,135,0.0,1.0,84,0.00,,,0.00,Wunderground v.1.15,2013-03-09 06:30:00,
2013-03-09 01:35:00,31.3,27.0,30.40,SE,135,1.0,1.0,84,0.00,,,0.00,Wunderground v.1.15,2013-03-09 06:35:00,
2013-03-09 01:40:00,31.1,26.8,30.40,SE,135,0.0,0.0,84,0.00,,,0.00,Wunderground v.1.15,2013-03-09 06:40:00,
2013-03-09 01:45:00,31.0,26.7,30.40,SE,135,0.0,0.0,84,0.00,,,0.00,Wunderground v.1.15,2013-03-09 06:45:00,
2013-03-09 01:51:00,31.0,27.0,30.40,SE,135,0.0,0.0,85,0.00,,,0.00,Wunderground v.1.15,2013-03-09 06:51:00,
2013-03-09 01:57:00,30.6,26.6,30.40,SE,136,0.0,0.0,85,0.00,,,0.00,Wunderground v.1.15,2013-03-09 06:57:00,
2013-03-09 02:03:00,31.0,27.3,30.40,SE,135,0.0,0.0,86,0.00,,,0.00,Wunderground v.1.15,2013-03-09 07:03:00,
2013-03-09 02:08:00,30.9,26.9,30.39,SE,135,0.0,0.0,85,0.00,,,0.00,Wunderground v.1.15,2013-03-09 07:08:00,
2013-03-09 02:13:00,30.5,26.5,30.39,SE,135,0.0,0.0,85,0.00,,,0.00,Wunderground v.1.15,2013-03-09 07:13:00,
2013-03-09 02:19:00,30.6,26.9,30.40,SE,135,0.0,0.0,86,0.00,,,0.00,Wunderground v.1.15,2013-03-09 07:19:00,
2013-03-09 02:24:00,30.5,26.8,30.39,SE,135,0.0,0.0,86,0.00,,,0.00,Wunderground v.1.15,2013-03-09 07:24:00,
2013-03-09 02:29:00,30.5,26.8,30.39,SE,135,0.0,0.0,86,0.00,,,0.00,Wunderground v.1.15,2013-03-09 07:29:00,
2013-03-09 02:35:00,30.4,26.7,30.39,SE,135,0.0,0.0,86,0.00,,,0.00,Wunderground v.1.15,2013-03-09 07:35:00,
2013-03-09 02:40:00,30.3,26.9,30.39,SE,135,0.0,0.0,87,0.00,,,0.00,Wunderground v.1.15,2013-03-09 07:40:00,
2013-03-09 02:45:00,30.0,26.6,30.39,SE,136,0.0,0.0,87,0.00,,,0.00,Wunderground v.1.15,2013-03-09 07:45:00,
2013-03-09 02:51:00,30.0,26.9,30.39,SE,135,0.0,0.0,88,0.00,,,0.00,Wunderground v.1.15,2013-03-09 07:51:00,
2013-03-09 02:56:00,30.1,27.0,30.39,SE,135,0.0,0.0,88,0.00,,,0.00,Wunderground v.1.15,2013-03-09 07:56:00,
2013-03-09 03:02:00,30.0,26.9,30.38,SE,135,0.0,0.0,88,0.00,,,0.00,Wunderground v.1.15,2013-03-09 08:02:00,
2013-03-09 03:07:00,30.0,26.6,30.38,SE,136,0.0,0.0,87,0.00,,,0.00,Wunderground v.1.15,2013-03-09 08:07:00,
2013-03-09 03:12:00,29.9,26.8,30.38,SE,136,0.0,0.0,88,0.00,,,0.00,Wunderground v.1.15,2013-03-09 08:12:00,
2013-03-09 03:17:00,29.7,26.3,30.38,SE,136,0.0,0.0,87,0.00,,,0.00,Wunderground v.1.15,2013-03-09 08:17:00,
2013-03-09 03:23:00,29.6,26.5,30.38,SE,135,0.0,0.0,88,0.00,,,0.00,Wunderground v.1.15,2013-03-09 08:23:00,
2013-03-09 03:28:00,29.5,26.4,30.37,SE,135,0.0,0.0,88,0.00,,,0.00,Wunderground v.1.15,2013-03-09 08:28:00,
2013-03-09 03:33:00,29.4,26.3,30.37,SE,135,0.0,0.0,88,0.00,,,0.00,Wunderground v.1.15,2013-03-09 08:33:00,
2013-03-09 03:39:00,28.9,25.8,30.36,SE,135,0.0,0.0,88,0.00,,,0.00,Wunderground v.1.15,2013-03-09 08:39:00,
2013-03-09 03:44:00,28.9,26.1,30.36,SE,135,0.0,0.0,89,0.00,,,0.00,Wunderground v.1.15,2013-03-09 08:44:00,
2013-03-09 03:49:00,28.9,26.1,30.35,SE,135,0.0,0.0,89,0.00,,,0.00,Wunderground v.1.15,2013-03-09 08:49:00,
2013-03-09 03:55:00,28.9,26.1,30.35,SE,135,0.0,0.0,89,0.00,,,0.00,Wunderground v.1.15,2013-03-09 08:55:00,
2013-03-09 04:00:00,28.7,25.9,30.35,SE,135,0.0,0.0,89,0.00,,,0.00,Wunderground v.1.15,2013-03-09 09:00:00,
2013-03-09 04:06:00,28.8,26.2,30.35,SE,135,0.0,1.0,90,0.00,,,0.00,Wunderground v.1.15,2013-03-09 09:06:00,
2013-03-09 04:12:00,28.8,26.2,30.35,SE,135,1.0,1.0,90,0.00,,,0.00,Wunderground v.1.15,2013-03-09 09:12:00,
2013-03-09 04:17:00,28.6,26.0,30.35,SE,136,1.0,1.0,90,0.00,,,0.00,Wunderground v.1.15,2013-03-09 09:17:00,
2013-03-09 04:23:00,28.7,26.1,30.35,SE,135,0.0,0.0,90,0.00,,,0.00,Wunderground v.1.15,2013-03-09 09:23:00,
2013-03-09 04:29:00,28.8,26.2,30.35,SE,135,0.0,0.0,90,0.00,,,0.00,Wunderground v.1.15,2013-03-09 09:29:00,
2013-03-09 04:34:00,28.8,26.5,30.35,SE,135,0.0,0.0,91,0.00,,,0.00,Wunderground v.1.15,2013-03-09 09:34:00,
2013-03-09 04:40:00,28.9,26.6,30.36,SE,135,0.0,0.0,91,0.00,,,0.00,Wunderground v.1.15,2013-03-09 09:40:00,
2013-03-09 04:46:00,28.8,26.5,30.36,SE,135,0.0,0.0,91,0.00,,,0.00,Wunderground v.1.15,2013-03-09 09:46:00,
2013-03-09 04:52:00,28.7,26.1,30.36,SE,135,0.0,0.0,90,0.00,,,0.00,Wunderground v.1.15,2013-03-09 09:52:00,
2013-03-09 04:57:00,28.9,26.6,30.36,SE,135,0.0,0.0,91,0.00,,,0.00,Wunderground v.1.15,2013-03-09 09:57:00,
2013-03-09 05:02:00,28.4,25.8,30.36,SE,135,0.0,0.0,90,0.00,,,0.00,Wunderground v.1.15,2013-03-09 10:02:00,
2013-03-09 05:08:00,28.2,25.9,30.37,SE,135,0.0,0.0,91,0.00,,,0.00,Wunderground v.1.15,2013-03-09 10:08:00,
2013-03-09 05:13:00,28.2,25.9,30.37,SE,136,0.0,0.0,91,0.00,,,0.00,Wunderground v.1.15,2013-03-09 10:13:00,
2013-03-09 05:18:00,28.0,25.7,30.37,SE,135,0.0,1.0,91,0.00,,,0.00,Wunderground v.1.15,2013-03-09 10:18:00,
2013-03-09 05:23:00,28.2,26.2,30.36,SE,135,0.0,1.0,92,0.00,,,0.00,Wunderground v.1.15,2013-03-09 10:23:00,
2013-03-09 05:29:00,28.2,25.9,30.36,SE,135,1.0,1.0,91,0.00,,,0.00,Wunderground v.1.15,2013-03-09 10:29:00,
2013-03-09 05:34:00,28.1,25.8,30.36,SE,135,0.0,1.0,91,0.00,,,0.00,Wunderground v.1.15,2013-03-09 10:34:00,
2013-03-09 05:39:00,28.1,26.1,30.36,SE,135,0.0,1.0,92,0.00,,,0.00,Wunderground v.1.15,2013-03-09 10:39:00,
2013-03-09 05:45:00,28.0,26.0,30.36,SE,135,0.0,0.0,92,0.00,,,0.00,Wunderground v.1.15,2013-03-09 10:45:00,
2013-03-09 05:50:00,28.1,26.1,30.36,SE,135,0.0,0.0,92,0.00,,,0.00,Wunderground v.1.15,2013-03-09 10:50:00,
2013-03-09 05:55:00,28.0,26.0,30.36,SE,135,0.0,0.0,92,0.00,,,0.00,Wunderground v.1.15,2013-03-09 10:55:00,
2013-03-09 06:01:00,28.0,26.0,30.36,SE,135,0.0,1.0,92,0.00,,,0.00,Wunderground v.1.15,2013-03-09 11:01:00,
2013-03-09 06:06:00,28.2,26.2,30.36,SE,135,1.0,2.0,92,0.00,,,0.00,Wunderground v.1.15,2013-03-09 11:06:00,
2013-03-09 06:12:00,28.0,26.0,30.36,SE,135,1.0,1.0,92,0.00,,,0.00,Wunderground v.1.15,2013-03-09 11:12:00,
2013-03-09 06:17:00,28.0,26.0,30.36,SE,135,0.0,1.0,92,0.00,,,0.00,Wunderground v.1.15,2013-03-09 11:17:00,
2013-03-09 06:22:00,27.8,25.8,30.37,SE,135,0.0,0.0,92,0.00,,,0.00,Wunderground v.1.15,2013-03-09 11:22:00,
2013-03-09 06:27:00,27.4,25.1,30.38,SE,135,0.0,0.0,91,0.00,,,0.00,Wunderground v.1.15,2013-03-09 11:27:00,
2013-03-09 06:33:00,27.4,25.4,30.38,SE,135,0.0,0.0,92,0.00,,,0.00,Wunderground v.1.15,2013-03-09 11:33:00,
2013-03-09 06:38:00,27.4,25.4,30.38,SE,135,0.0,0.0,92,0.00,,,0.00,Wunderground v.1.15,2013-03-09 11:38:00,
2013-03-09 06:43:00,27.4,25.4,30.38,SE,135,0.0,0.0,92,0.00,,,0.00,Wunderground v.1.15,2013-03-09 11:43:00,
2013-03-09 06:49:00,27.4,25.4,30.37,SE,135,0.0,0.0,92,0.00,,,0.00,Wunderground v.1.15,2013-03-09 11:49:00,
2013-03-09 06:55:00,27.1,25.1,30.37,SE,135,0.0,0.0,92,0.00,,,0.00,Wunderground v.1.15,2013-03-09 11:55:00,
2013-03-09 07:00:00,27.0,25.0,30.37,SE,135,0.0,0.0,92,0.00,,,0.00,Wunderground v.1.15,2013-03-09 12:00:00,
2013-03-09 07:06:00,27.0,25.0,30.37,SE,135,0.0,0.0,92,0.00,,,0.00,Wunderground v.1.15,2013-03-09 12:06:00,
2013-03-09 07:11:00,26.9,24.9,30.37,SE,135,0.0,0.0,92,0.00,,,0.00,Wunderground v.1.15,2013-03-09 12:11:00,
2013-03-09 07:17:00,27.5,25.7,30.36,SE,135,0.0,1.0,93,0.00,,,0.00,Wunderground v.1.15,2013-03-09 12:17:00,
2013-03-09 07:22:00,27.5,25.7,30.36,SE,135,0.0,0.0,93,0.00,,,0.00,Wunderground v.1.15,2013-03-09 12:22:00,
2013-03-09 07:27:00,27.8,26.0,30.36,SE,136,0.0,1.0,93,0.00,,,0.00,Wunderground v.1.15,2013-03-09 12:27:00,
2013-03-09 07:33:00,28.1,26.3,30.36,SE,135,1.0,1.0,93,0.00,,,0.00,Wunderground v.1.15,2013-03-09 12:33:00,
2013-03-09 07:38:00,28.3,26.5,30.36,SE,135,1.0,2.0,93,0.00,,,0.00,Wunderground v.1.15,2013-03-09 12:38:00,
2013-03-09 07:43:00,28.7,26.7,30.36,SE,135,2.0,2.0,92,0.00,,,0.00,Wunderground v.1.15,2013-03-09 12:43:00,
2013-03-09 07:48:00,29.0,27.0,30.36,SE,135,2.0,2.0,92,0.00,,,0.00,Wunderground v.1.15,2013-03-09 12:48:00,
2013-03-09 07:54:00,29.3,27.3,30.36,SE,135,2.0,2.0,92,0.00,,,0.00,Wunderground v.1.15,2013-03-09 12:54:00,
2013-03-09 07:59:00,29.6,27.6,30.35,SE,135,2.0,3.0,92,0.00,,,0.00,Wunderground v.1.15,2013-03-09 12:59:00,
2013-03-09 08:04:00,30.1,28.1,30.36,SE,135,2.0,2.0,92,0.00,,,0.00,Wunderground v.1.15,2013-03-09 13:04:00,
2013-03-09 08:10:00,30.6,28.6,30.36,SE,136,1.0,2.0,92,0.00,,,0.00,Wunderground v.1.15,2013-03-09 13:10:00,
2013-03-09 08:15:00,30.8,28.8,30.36,SE,135,1.0,3.0,92,0.00,,,0.00,Wunderground v.1.15,2013-03-09 13:15:00,
2013-03-09 08:20:00,31.2,29.1,30.36,SE,135,2.0,3.0,92,0.00,,,0.00,Wunderground v.1.15,2013-03-09 13:20:00,
2013-03-09 08:26:00,31.4,29.1,30.36,SE,134,3.0,4.0,91,0.00,,,0.00,Wunderground v.1.15,2013-03-09 13:26:00,
2013-03-09 08:31:00,31.5,29.2,30.36,SE,127,3.0,4.0,91,0.00,,,0.00,Wunderground v.1.15,2013-03-09 13:31:00,
2013-03-09 08:37:00,31.6,29.3,30.36,SE,127,3.0,5.0,91,0.00,,,0.00,Wunderground v.1.15,2013-03-09 13:37:00,
2013-03-09 08:42:00,32.0,29.7,30.36,SE,128,3.0,3.0,91,0.00,,,0.00,Wunderground v.1.15,2013-03-09 13:42:00,
2013-03-09 08:47:00,32.3,30.0,30.36,SE,127,2.0,5.0,91,0.00,,,0.00,Wunderground v.1.15,2013-03-09 13:47:00,
2013-03-09 08:52:00,32.5,29.9,30.36,SE,132,3.0,3.0,90,0.00,,,0.00,Wunderground v.1.15,2013-03-09 13:52:00,
2013-03-09 08:57:00,32.8,30.2,30.36,SE,134,3.0,3.0,90,0.00,,,0.00,Wunderground v.1.15,2013-03-09 13:57:00,
2013-03-09 09:03:00,33.2,30.3,30.36,SE,134,2.0,4.0,89,0.00,,,0.00,Wunderground v.1.15,2013-03-09 14:03:00,
2013-03-09 09:08:00,33.3,30.1,30.36,SE,135,2.0,7.0,88,0.00,,,0.00,Wunderground v.1.15,2013-03-09 14:08:00,
2013-03-09 09:14:00,33.5,30.0,30.36,SE,140,3.0,3.0,87,0.00,,,0.00,Wunderground v.1.15,2013-03-09 14:14:00,
2013-03-09 09:19:00,33.6,29.9,30.36,ESE,123,3.0,8.0,86,0.00,,,0.00,Wunderground v.1.15,2013-03-09 14:19:00,
2013-03-09 09:25:00,34.5,30.7,30.36,South,180,3.0,5.0,86,0.00,,,0.00,Wunderground v.1.15,2013-03-09 14:25:00,
2013-03-09 09:30:00,34.7,30.4,30.36,South,172,4.0,10.0,84,0.00,,,0.00,Wunderground v.1.15,2013-03-09 14:30:00,
2013-03-09 09:35:00,35.0,30.4,30.36,South,173,4.0,6.0,83,0.00,,,0.00,Wunderground v.1.15,2013-03-09 14:35:00,
2013-03-09 09:41:00,35.5,30.5,30.36,SE,135,4.0,4.0,82,0.00,,,0.00,Wunderground v.1.15,2013-03-09 14:41:00,
2013-03-09 09:46:00,35.9,30.3,30.35,ESE,123,4.0,7.0,80,0.00,,,0.00,Wunderground v.1.15,2013-03-09 14:46:00,
2013-03-09 09:52:00,36.2,30.6,30.36,SE,146,4.0,6.0,80,0.00,,,0.00,Wunderground v.1.15,2013-03-09 14:52:00,
2013-03-09 09:57:00,36.2,30.0,30.36,SE,142,5.0,9.0,78,0.00,,,0.00,Wunderground v.1.15,2013-03-09 14:57:00,
2013-03-09 10:02:00,36.8,30.3,30.35,SSE,154,6.0,6.0,77,0.00,,,0.00,Wunderground v.1.15,2013-03-09 15:02:00,
2013-03-09 10:08:00,37.3,30.4,30.35,ESE,111,5.0,7.0,76,0.00,,,0.00,Wunderground v.1.15,2013-03-09 15:08:00,
2013-03-09 10:13:00,37.3,29.8,30.34,SE,130,6.0,13.0,74,0.00,,,0.00,Wunderground v.1.15,2013-03-09 15:13:00,
2013-03-09 10:18:00,38.0,30.8,30.35,ESE,123,5.0,13.0,75,0.00,,,0.00,Wunderground v.1.15,2013-03-09 15:18:00,
2013-03-09 10:24:00,37.8,30.3,30.34,SE,137,5.0,8.0,74,0.00,,,0.00,Wunderground v.1.15,2013-03-09 15:24:00,
2013-03-09 10:29:00,37.9,30.4,30.33,ENE,78,6.0,8.0,74,0.00,,,0.00,Wunderground v.1.15,2013-03-09 15:29:00,
2013-03-09 10:34:00,38.2,30.3,30.34,SE,132,5.0,7.0,73,0.00,,,0.00,Wunderground v.1.15,2013-03-09 15:34:00,
2013-03-09 10:39:00,38.3,30.4,30.33,SE,146,6.0,11.0,73,0.00,,,0.00,Wunderground v.1.15,2013-03-09 15:39:00,
2013-03-09 10:45:00,38.1,30.2,30.33,SE,142,6.0,7.0,73,0.00,,,0.00,Wunderground v.1.15,2013-03-09 15:45:00,
2013-03-09 10:50:00,38.7,31.1,30.33,SE,132,5.0,6.0,74,0.00,,,0.00,Wunderground v.1.15,2013-03-09 15:50:00,
2013-03-09 10:55:00,38.6,30.7,30.33,SE,136,4.0,8.0,73,0.00,,,0.00,Wunderground v.1.15,2013-03-09 15:55:00,
2013-03-09 11:00:00,38.5,30.6,30.33,South,175,5.0,8.0,73,0.00,,,0.00,Wunderground v.1.15,2013-03-09 16:00:00,
2013-03-09 11:06:00,38.7,31.1,30.33,East,89,6.0,8.0,74,0.00,,,0.00,Wunderground v.1.15,2013-03-09 16:06:00,
2013-03-09 11:11:00,38.5,30.9,30.33,SSW,199,6.0,6.0,74,0.00,,,0.00,Wunderground v.1.15,2013-03-09 16:11:00,
2013-03-09 11:17:00,39.2,31.6,30.33,ESE,113,5.0,6.0,74,0.00,,,0.00,Wunderground v.1.15,2013-03-09 16:17:00,
2013-03-09 11:22:00,39.0,31.1,30.33,East,90,5.0,6.0,73,0.00,,,0.00,Wunderground v.1.15,2013-03-09 16:22:00,
2013-03-09 11:27:00,39.0,31.1,30.34,ESE,105,6.0,9.0,73,0.00,,,0.00,Wunderground v.1.15,2013-03-09 16:27:00,
2013-03-09 11:32:00,39.0,31.1,30.33,SSE,148,6.0,10.0,73,0.00,,,0.00,Wunderground v.1.15,2013-03-09 16:32:00,
2013-03-09 11:38:00,39.2,31.3,30.33,South,171,6.0,10.0,73,0.00,,,0.00,Wunderground v.1.15,2013-03-09 16:38:00,
2013-03-09 11:43:00,39.3,31.0,30.32,SE,133,6.0,10.0,72,0.00,,,0.00,Wunderground v.1.15,2013-03-09 16:43:00,
2013-03-09 11:49:00,39.7,31.8,30.32,SE,140,5.0,12.0,73,0.00,,,0.00,Wunderground v.1.15,2013-03-09 16:49:00,
2013-03-09 11:54:00,40.2,31.5,30.32,ESE,119,5.0,8.0,71,0.00,,,0.00,Wunderground v.1.15,2013-03-09 16:54:00,
2013-03-09 11:59:00,39.8,31.2,30.32,SSE,147,6.0,9.0,71,0.00,,,0.00,Wunderground v.1.15,2013-03-09 16:59:00,
2013-03-09 12:04:00,40.0,31.4,30.31,SE,125,7.0,7.0,71,0.00,,,0.00,Wunderground v.1.15,2013-03-09 17:04:00,
2013-03-09 12:10:00,40.7,31.7,30.31,ESE,107,6.0,6.0,70,0.00,,,0.00,Wunderground v.1.15,2013-03-09 17:10:00,
2013-03-09 12:15:00,40.7,31.3,30.30,ESE,117,6.0,11.0,69,0.00,,,0.00,Wunderground v.1.15,2013-03-09 17:15:00,
2013-03-09 12:21:00,40.6,31.6,30.30,ESE,109,8.0,8.0,70,0.00,,,0.00,Wunderground v.1.15,2013-03-09 17:21:00,
2013-03-09 12:26:00,40.7,31.3,30.30,ESE,111,7.0,9.0,69,0.00,,,0.00,Wunderground v.1.15,2013-03-09 17:26:00,
2013-03-09 12:31:00,41.1,31.7,30.30,ENE,76,6.0,6.0,69,0.00,,,0.00,Wunderground v.1.15,2013-03-09 17:31:00,
2013-03-09 12:37:00,41.4,31.6,30.30,ESE,103,6.0,9.0,68,0.00,,,0.00,Wunderground v.1.15,2013-03-09 17:37:00,
2013-03-09 12:42:00,41.6,31.4,30.30,SSE,153,6.0,9.0,67,0.00,,,0.00,Wunderground v.1.15,2013-03-09 17:42:00,
2013-03-09 12:47:00,41.8,31.6,30.30,East,89,6.0,9.0,67,0.00,,,0.00,Wunderground v.1.15,2013-03-09 17:47:00,
2013-03-09 12:52:00,42.1,32.3,30.29,ESE,116,6.0,7.0,68,0.00,,,0.00,Wunderground v.1.15,2013-03-09 17:52:00,
2013-03-09 12:57:00,42.0,31.8,30.29,East,97,7.0,8.0,67,0.00,,,0.00,Wunderground v.1.15,2013-03-09 17:57:00,
2013-03-09 13:03:00,42.1,32.3,30.29,SSE,161,7.0,7.0,68,0.00,,,0.00,Wunderground v.1.15,2013-03-09 18:03:00,
2013-03-09 13:08:00,42.2,32.0,30.29,ESE,118,6.0,7.0,67,0.00,,,0.00,Wunderground v.1.15,2013-03-09 18:08:00,
2013-03-09 13:13:00,42.9,32.3,30.28,SE,130,6.0,8.0,66,0.00,,,0.00,Wunderground v.1.15,2013-03-09 18:13:00,
2013-03-09 13:19:00,43.1,32.1,30.28,ESE,118,6.0,10.0,65,0.00,,,0.00,Wunderground v.1.15,2013-03-09 18:19:00,
2013-03-09 13:24:00,42.9,31.6,30.28,ESE,111,6.0,6.0,64,0.00,,,0.00,Wunderground v.1.15,2013-03-09 18:24:00,
2013-03-09 13:29:00,43.2,31.4,30.28,ESE,117,5.0,7.0,63,0.00,,,0.00,Wunderground v.1.15,2013-03-09 18:29:00,
2013-03-09 13:34:00,43.0,31.6,30.27,East,101,6.0,12.0,64,0.00,,,0.00,Wunderground v.1.15,2013-03-09 18:34:00,
2013-03-09 13:40:00,43.6,31.8,30.26,ENE,59,6.0,6.0,63,0.00,,,0.00,Wunderground v.1.15,2013-03-09 18:40:00,
2013-03-09 13:45:00,43.4,31.2,30.26,ESE,109,5.0,7.0,62,0.00,,,0.00,Wunderground v.1.15,2013-03-09 18:45:00,
2013-03-09 13:51:00,43.9,31.7,30.25,SSE,155,6.0,8.0,62,0.00,,,0.00,Wunderground v.1.15,2013-03-09 18:51:00,
2013-03-09 13:56:00,43.8,31.6,30.24,ESE,115,7.0,11.0,62,0.00,,,0.00,Wunderground v.1.15,2013-03-09 18:56:00,
2013-03-09 14:02:00,44.2,30.8,30.24,East,93,6.0,9.0,59,0.00,,,0.00,Wunderground v.1.15,2013-03-09 19:02:00,
2013-03-09 14:07:00,44.0,30.6,30.23,ESE,113,7.0,11.0,59,0.00,,,0.00,Wunderground v.1.15,2013-03-09 19:07:00,
2013-03-09 14:12:00,44.3,31.3,30.23,ESE,116,6.0,7.0,60,0.00,,,0.00,Wunderground v.1.15,2013-03-09 19:12:00,
2013-03-09 14:18:00,43.8,30.4,30.23,ESE,116,6.0,12.0,59,0.00,,,0.00,Wunderground v.1.15,2013-03-09 19:18:00,
2013-03-09 14:23:00,43.8,30.0,30.23,SE,124,6.0,10.0,58,0.00,,,0.00,Wunderground v.1.15,2013-03-09 19:23:00,
2013-03-09 14:29:00,43.0,30.1,30.22,South,178,6.0,10.0,60,0.00,,,0.00,Wunderground v.1.15,2013-03-09 19:29:00,
2013-03-09 14:34:00,43.5,30.1,30.22,SE,137,5.0,7.0,59,0.00,,,0.00,Wunderground v.1.15,2013-03-09 19:34:00,
2013-03-09 14:39:00,43.6,30.2,30.21,SE,142,5.0,9.0,59,0.00,,,0.00,Wunderground v.1.15,2013-03-09 19:39:00,
2013-03-09 14:45:00,44.0,30.6,30.21,SE,134,6.0,12.0,59,0.00,,,0.00,Wunderground v.1.15,2013-03-09 19:45:00,
2013-03-09 14:50:00,44.1,29.8,30.21,ENE,61,6.0,12.0,57,0.00,,,0.00,Wunderground v.1.15,2013-03-09 19:50:00,
2013-03-09 14:55:00,43.8,29.1,30.22,East,92,7.0,8.0,56,0.00,,,0.00,Wunderground v.1.15,2013-03-09 19:55:00,
2013-03-09 15:01:00,43.4,29.2,30.21,SSE,156,7.0,7.0,57,0.00,,,0.00,Wunderground v.1.15,2013-03-09 20:01:00,
2013-03-09 15:06:00,43.9,29.2,30.20,ESE,122,7.0,8.0,56,0.00,,,0.00,Wunderground v.1.15,2013-03-09 20:06:00,
2013-03-09 15:12:00,43.6,29.4,30.20,SE,128,7.0,10.0,57,0.00,,,0.00,Wunderground v.1.15,2013-03-09 20:12:00,
2013-03-09 15:17:00,44.0,30.2,30.20,East,101,7.0,10.0,58,0.00,,,0.00,Wunderground v.1.15,2013-03-09 20:17:00,
2013-03-09 15:22:00,44.1,29.8,30.19,East,93,6.0,7.0,57,0.00,,,0.00,Wunderground v.1.15,2013-03-09 20:22:00,
2013-03-09 15:28:00,43.7,29.5,30.19,SE,134,6.0,10.0,57,0.00,,,0.00,Wunderground v.1.15,2013-03-09 20:28:00,
2013-03-09 15:33:00,43.7,29.0,30.20,SSE,157,6.0,6.0,56,0.00,,,0.00,Wunderground v.1.15,2013-03-09 20:33:00,
2013-03-09 15:38:00,43.7,29.5,30.18,SE,128,6.0,6.0,57,0.00,,,0.00,Wunderground v.1.15,2013-03-09 20:38:00,
2013-03-09 15:44:00,43.6,29.4,30.18,East,93,5.0,9.0,57,0.00,,,0.00,Wunderground v.1.15,2013-03-09 20:44:00,
2013-03-09 15:49:00,43.6,29.8,30.18,SE,128,6.0,9.0,58,0.00,,,0.00,Wunderground v.1.15,2013-03-09 20:49:00,
2013-03-09 15:55:00,43.4,30.0,30.18,ESE,123,6.0,8.0,59,0.00,,,0.00,Wunderground v.1.15,2013-03-09 20:55:00,
2013-03-09 16:01:00,43.1,29.7,30.18,ESE,120,7.0,8.0,59,0.00,,,0.00,Wunderground v.1.15,2013-03-09 21:01:00,
2013-03-09 16:06:00,43.0,29.6,30.19,ESE,109,7.0,8.0,59,0.00,,,0.00,Wunderground v.1.15,2013-03-09 21:06:00,
2013-03-09 16:11:00,43.0,30.1,30.18,ENE,77,6.0,8.0,60,0.00,,,0.00,Wunderground v.1.15,2013-03-09 21:11:00,
2013-03-09 16:17:00,42.9,30.0,30.18,ESE,116,6.0,10.0,60,0.00,,,0.00,Wunderground v.1.15,2013-03-09 21:17:00,
2013-03-09 16:22:00,42.9,30.4,30.17,SSE,155,6.0,7.0,61,0.00,,,0.00,Wunderground v.1.15,2013-03-09 21:22:00,
2013-03-09 16:27:00,42.7,30.2,30.17,SSW,200,7.0,9.0,61,0.00,,,0.00,Wunderground v.1.15,2013-03-09 21:27:00,
2013-03-09 16:33:00,42.8,30.7,30.17,ESE,112,7.0,8.0,62,0.00,,,0.00,Wunderground v.1.15,2013-03-09 21:33:00,
2013-03-09 16:38:00,42.8,30.7,30.16,East,83,6.0,9.0,62,0.00,,,0.00,Wunderground v.1.15,2013-03-09 21:38:00,
2013-03-09 16:43:00,42.6,30.9,30.16,SSE,153,6.0,10.0,63,0.00,,,0.00,Wunderground v.1.15,2013-03-09 21:43:00,
2013-03-09 16:48:00,42.7,31.0,30.16,SE,124,5.0,10.0,63,0.00,,,0.00,Wunderground v.1.15,2013-03-09 21:48:00,
2013-03-09 16:54:00,42.7,31.0,30.16,ESE,111,6.0,8.0,63,0.00,,,0.00,Wunderground v.1.15,2013-03-09 21:54:00,
2013-03-09 16:59:00,42.5,30.8,30.16,ESE,117,8.0,9.0,63,0.00,,,0.00,Wunderground v.1.15,2013-03-09 21:59:00,
2013-03-09 17:04:00,42.5,31.2,30.16,SSE,148,7.0,8.0,64,0.00,,,0.00,Wunderground v.1.15,2013-03-09 22:04:00,
2013-03-09 17:09:00,42.5,31.6,30.16,SE,133,7.0,9.0,65,0.00,,,0.00,Wunderground v.1.15,2013-03-09 22:09:00,
2013-03-09 17:14:00,42.5,31.6,30.16,ESE,122,6.0,7.0,65,0.00,,,0.00,Wunderground v.1.15,2013-03-09 22:14:00,
2013-03-09 17:20:00,42.4,31.5,30.16,SE,139,5.0,5.0,65,0.00,,,0.00,Wunderground v.1.15,2013-03-09 22:20:00,
2013-03-09 17:25:00,42.4,31.8,30.15,ESE,103,6.0,7.0,66,0.00,,,0.00,Wunderground v.1.15,2013-03-09 22:25:00,
2013-03-09 17:30:00,42.5,31.9,30.15,ESE,123,6.0,10.0,66,0.00,,,0.00,Wunderground v.1.15,2013-03-09 22:30:00,
2013-03-09 17:35:00,42.5,31.9,30.15,ESE,123,6.0,10.0,66,0.00,,,0.00,Wunderground v.1.15,2013-03-09 22:35:00,
2013-03-09 17:41:00,42.5,31.9,30.15,East,98,6.0,8.0,66,0.00,,,0.00,Wunderground v.1.15,2013-03-09 22:41:00,
2013-03-09 17:47:00,42.4,31.8,30.15,ESE,105,6.0,9.0,66,0.00,,,0.00,Wunderground v.1.15,2013-03-09 22:47:00,
2013-03-09 17:52:00,42.3,32.1,30.14,SSE,157,5.0,5.0,67,0.00,,,0.00,Wunderground v.1.15,2013-03-09 22:52:00,
2013-03-09 17:57:00,42.3,32.1,30.14,SSE,157,4.0,10.0,67,0.00,,,0.00,Wunderground v.1.15,2013-03-09 22:57:00,
2013-03-09 18:02:00,42.2,32.0,30.14,SE,128,4.0,5.0,67,0.00,,,0.00,Wunderground v.1.15,2013-03-09 23:02:00,
2013-03-09 18:07:00,42.0,32.2,30.15,SSE,151,3.0,6.0,68,0.00,,,0.00,Wunderground v.1.15,2013-03-09 23:07:00,
2013-03-09 18:13:00,42.0,32.2,30.15,SE,125,3.0,5.0,68,0.00,,,0.00,Wunderground v.1.15,2013-03-09 23:13:00,
2013-03-09 18:18:00,41.9,32.1,30.14,SE,134,3.0,5.0,68,0.00,,,0.00,Wunderground v.1.15,2013-03-09 23:18:00,
2013-03-09 18:23:00,41.9,32.5,30.14,ESE,110,4.0,5.0,69,0.00,,,0.00,Wunderground v.1.15,2013-03-09 23:23:00,
2013-03-09 18:29:00,41.8,32.4,30.15,SE,132,4.0,5.0,69,0.00,,,0.00,Wunderground v.1.15,2013-03-09 23:29:00,
2013-03-09 18:34:00,41.6,32.5,30.14,ESE,108,3.0,7.0,70,0.00,,,0.00,Wunderground v.1.15,2013-03-09 23:34:00,
2013-03-09 18:39:00,41.6,32.5,30.14,SE,130,3.0,7.0,70,0.00,,,0.00,Wunderground v.1.15,2013-03-09 23:39:00,
2013-03-09 18:44:00,41.5,32.4,30.14,SE,130,4.0,5.0,70,0.00,,,0.00,Wunderground v.1.15,2013-03-09 23:44:00,
2013-03-09 18:50:00,41.5,32.4,30.13,SE,125,3.0,3.0,70,0.00,,,0.00,Wunderground v.1.15,2013-03-09 23:50:00,
2013-03-09 18:56:00,41.4,32.3,30.13,ESE,123,4.0,5.0,70,0.00,,,0.00,Wunderground v.1.15,2013-03-09 23:56:00,
2013-03-09 19:02:00,41.4,32.7,30.13,SE,140,5.0,8.0,71,0.00,,,0.00,Wunderground v.1.15,2013-03-10 00:02:00,
2013-03-09 19:07:00,41.4,32.7,30.12,ESE,109,6.0,10.0,71,0.00,,,0.00,Wunderground v.1.15,2013-03-10 00:07:00,
2013-03-09 19:12:00,41.3,33.0,30.12,East,100,7.0,8.0,72,0.00,,,0.00,Wunderground v.1.15,2013-03-10 00:12:00,
2013-03-09 19:17:00,41.1,32.8,30.12,ESE,107,7.0,9.0,72,0.00,,,0.00,Wunderground v.1.15,2013-03-10 00:17:00,
2013-03-09 19:22:00,41.0,32.7,30.11,ESE,102,8.0,9.0,72,0.00,,,0.00,Wunderground v.1.15,2013-03-10 00:22:00,
2013-03-09 19:28:00,40.8,32.5,30.12,SE,125,8.0,11.0,72,0.00,,,0.00,Wunderground v.1.15,2013-03-10 00:28:00,
2013-03-09 19:33:00,40.6,32.3,30.11,East,99,8.0,17.0,72,0.00,,,0.00,Wunderground v.1.15,2013-03-10 00:33:00,
2013-03-09 19:39:00,40.3,31.6,30.10,SE,125,8.0,17.0,71,0.00,,,0.00,Wunderground v.1.15,2013-03-10 00:39:00,
2013-03-09 19:45:00,40.2,31.9,30.11,ESE,118,8.0,11.0,72,0.00,,,0.00,Wunderground v.1.15,2013-03-10 00:45:00,
2013-03-09 19:50:00,40.1,31.8,30.11,ESE,115,7.0,9.0,72,0.00,,,0.00,Wunderground v.1.15,2013-03-10 00:50:00,
2013-03-09 19:55:00,40.0,31.7,30.11,ESE,122,6.0,9.0,72,0.00,,,0.00,Wunderground v.1.15,2013-03-10 00:55:00,
2013-03-09 20:00:00,40.0,32.0,30.10,ENE,74,6.0,6.0,73,0.00,,,0.00,Wunderground v.1.15,2013-03-10 01:00:00,
2013-03-09 20:06:00,39.9,31.9,30.10,ESE,103,6.0,9.0,73,0.00,,,0.00,Wunderground v.1.15,2013-03-10 01:06:00,
2013-03-09 20:12:00,39.7,31.8,30.10,East,96,6.0,8.0,73,0.00,,,0.00,Wunderground v.1.15,2013-03-10 01:12:00,
2013-03-09 20:17:00,39.7,31.8,30.10,ESE,104,6.0,8.0,73,0.00,,,0.00,Wunderground v.1.15,2013-03-10 01:17:00,
2013-03-09 20:22:00,39.6,31.7,30.10,ESE,104,6.0,7.0,73,0.00,,,0.00,Wunderground v.1.15,2013-03-10 01:22:00,
2013-03-09 20:28:00,39.6,32.0,30.11,SE,134,6.0,11.0,74,0.00,,,0.00,Wunderground v.1.15,2013-03-10 01:28:00,
2013-03-09 20:33:00,39.5,31.9,30.11,East,82,5.0,6.0,74,0.00,,,0.00,Wunderground v.1.15,2013-03-10 01:33:00,
2013-03-09 20:38:00,39.4,31.8,30.10,ESE,106,5.0,10.0,74,0.00,,,0.00,Wunderground v.1.15,2013-03-10 01:38:00,
2013-03-09 20:44:00,39.2,31.9,30.10,ESE,110,7.0,8.0,75,0.00,,,0.00,Wunderground v.1.15,2013-03-10 01:44:00,
2013-03-09 20:49:00,39.1,32.2,30.11,SE,134,6.0,8.0,76,0.00,,,0.00,Wunderground v.1.15,2013-03-10 01:49:00,
2013-03-09 20:54:00,39.0,32.4,30.10,SE,132,6.0,11.0,77,0.00,,,0.00,Wunderground v.1.15,2013-03-10 01:54:00,
2013-03-09 20:59:00,38.8,32.2,30.10,ESE,108,5.0,11.0,77,0.00,,,0.00,Wunderground v.1.15,2013-03-10 01:59:00,
2013-03-09 21:05:00,38.7,32.4,30.10,SE,136,5.0,9.0,78,0.00,,,0.00,Wunderground v.1.15,2013-03-10 02:05:00,
2013-03-09 21:10:00,38.8,32.5,30.11,East,101,4.0,5.0,78,0.00,,,0.00,Wunderground v.1.15,2013-03-10 02:10:00,
2013-03-09 21:15:00,38.7,32.4,30.11,ESE,111,4.0,8.0,78,0.00,,,0.00,Wunderground v.1.15,2013-03-10 02:15:00,
2013-03-09 21:20:00,38.7,32.4,30.10,ESE,117,5.0,5.0,78,0.00,,,0.00,Wunderground v.1.15,2013-03-10 02:20:00,
2013-03-09 21:25:00,38.6,32.3,30.10,SE,127,5.0,9.0,78,0.00,,,0.00,Wunderground v.1.15,2013-03-10 02:25:00,
2013-03-09 21:31:00,38.6,32.3,30.10,SE,138,6.0,9.0,78,0.00,,,0.00,Wunderground v.1.15,2013-03-10 02:31:00,
2013-03-09 21:36:00,38.5,32.2,30.10,SE,141,5.0,9.0,78,0.00,,,0.00,Wunderground v.1.15,2013-03-10 02:36:00,
2013-03-09 21:42:00,38.5,32.2,30.10,ESE,114,4.0,7.0,78,0.00,,,0.00,Wunderground v.1.15,2013-03-10 02:42:00,
2013-03-09 21:47:00,38.5,32.2,30.10,SE,130,3.0,7.0,78,0.00,,,0.00,Wunderground v.1.15,2013-03-10 02:47:00,
2013-03-09 21:52:00,38.5,32.2,30.10,SE,128,3.0,5.0,78,0.00,,,0.00,Wunderground v.1.15,2013-03-10 02:52:00,
2013-03-09 21:58:00,38.5,32.6,30.09,SE,136,3.0,7.0,79,0.00,,,0.00,Wunderground v.1.15,2013-03-10 02:58:00,
2013-03-09 22:03:00,38.4,32.5,30.09,East,95,4.0,4.0,79,0.00,,,0.00,Wunderground v.1.15,2013-03-10 03:03:00,
2013-03-09 22:08:00,38.4,32.5,30.08,ESE,123,4.0,4.0,79,0.00,,,0.00,Wunderground v.1.15,2013-03-10 03:08:00,
2013-03-09 22:14:00,38.4,32.5,30.08,ESE,111,5.0,9.0,79,0.00,,,0.00,Wunderground v.1.15,2013-03-10 03:14:00,
2013-03-09 22:19:00,38.4,32.5,30.08,SE,126,6.0,9.0,79,0.00,,,0.00,Wunderground v.1.15,2013-03-10 03:19:00,
2013-03-09 22:24:00,38.4,32.5,30.08,ESE,105,4.0,5.0,79,0.00,,,0.00,Wunderground v.1.15,2013-03-10 03:24:00,
2013-03-09 22:30:00,38.5,32.6,30.08,ESE,108,4.0,7.0,79,0.00,,,0.00,Wunderground v.1.15,2013-03-10 03:30:00,
2013-03-09 22:35:00,38.6,32.6,30.08,East,80,5.0,9.0,79,0.00,,,0.00,Wunderground v.1.15,2013-03-10 03:35:00,
2013-03-09 22:41:00,38.5,32.6,30.07,East,90,6.0,6.0,79,0.00,,,0.00,Wunderground v.1.15,2013-03-10 03:41:00,
2013-03-09 22:46:00,38.5,32.6,30.07,ESE,115,7.0,9.0,79,0.00,,,0.00,Wunderground v.1.15,2013-03-10 03:46:00,
2013-03-09 22:52:00,38.5,32.6,30.07,ESE,112,5.0,7.0,79,0.00,,,0.00,Wunderground v.1.15,2013-03-10 03:52:00,
2013-03-09 22:57:00,38.5,32.6,30.06,ESE,103,4.0,7.0,79,0.00,,,0.00,Wunderground v.1.15,2013-03-10 03:57:00,
2013-03-09 23:02:00,38.6,33.0,30.07,East,92,5.0,7.0,80,0.00,,,0.00,Wunderground v.1.15,2013-03-10 04:02:00,
2013-03-09 23:08:00,38.6,33.0,30.06,SE,132,4.0,7.0,80,0.00,,,0.00,Wunderground v.1.15,2013-03-10 04:08:00,
2013-03-09 23:13:00,38.7,33.1,30.06,East,101,3.0,7.0,80,0.00,,,0.00,Wunderground v.1.15,2013-03-10 04:13:00,
2013-03-09 23:18:00,38.7,33.1,30.06,SE,124,4.0,7.0,80,0.00,,,0.00,Wunderground v.1.15,2013-03-10 04:18:00,
2013-03-09 23:24:00,38.7,33.1,30.05,ESE,103,4.0,5.0,80,0.00,,,0.00,Wunderground v.1.15,2013-03-10 04:24:00,
2013-03-09 23:29:00,38.8,33.2,30.05,SE,136,4.0,6.0,80,0.00,,,0.00,Wunderground v.1.15,2013-03-10 04:29:00,
2013-03-09 23:34:00,38.9,33.3,30.05,ESE,118,5.0,7.0,80,0.00,,,0.00,Wunderground v.1.15,2013-03-10 04:34:00,
2013-03-09 23:40:00,38.8,33.2,30.05,SE,133,3.0,3.0,80,0.00,,,0.00,Wunderground v.1.15,2013-03-10 04:40:00,
2013-03-09 23:45:00,38.7,33.1,30.05,ESE,121,3.0,3.0,80,0.00,,,0.00,Wunderground v.1.15,2013-03-10 04:45:00,
2013-03-09 23:50:00,38.6,33.0,30.05,ESE,117,2.0,7.0,80,0.00,,,0.00,Wunderground v.1.15,2013-03-10 04:50:00,
2013-03-09 23:56:00,38.6,33.0,30.04,ESE,117,3.0,7.0,80,0.00,,,0.00,Wunderground v.1.15,2013-03-10 04:56:00,